This demonstration page uses our WeatherBlox Daily Observations layout. Learn more.

Hourly Observations for January 15, 2020

Temp ( °F °C ) Dew Point ( °F °C ) Humidity (%) Winds ( mph kmh ) Pressure ( in mb ) Visibility ( mi km ) Precip ( " mm )
12:54 am 00:54 Cloudy 31 -0.6 27 -2.8 85 85 NNE 9 15 30 1016 9 14.48406 0 0
1:45 am 01:45 Cloudy 31 -0.6 27 -2.8 85 85 NE 6 9 30.02 1017 8 12.87472 0 0
1:54 am 01:54 Cloudy 31 -0.6 27 -2.8 85 85 ENE 7 11 29.99 1016 9 14.48406 0 0
2:54 am 02:54 Cloudy 31 -0.6 27 -2.8 85 85 NE 6 9 30 1016 8 12.87472 0 0
3:54 am 03:54 Cloudy 31 -0.6 27 -2.8 85 85 NE 7 11 29.98 1015 7 11.26538 0 0
4:54 am 04:54 Cloudy with Mist and Fog 31 -0.6 28 -2.2 89 89 N 13 20 30.04 1017 5 8.0467 0 0
5:27 am 05:27 Cloudy with Mist and Fog 30 -1.1 27 -2.8 88 88 NNW 17 28 30.1 1019 2.5 4.02335 0 0
5:39 am 05:39 Cloudy with Mist and Fog 30 -1.1 28 -2.2 92 92 NNW 15 24 30.11 1019 1.25 2.011675 0 0
5:54 am 05:54 Cloudy with Mist and Fog 30 -1.1 28 -2.2 92 92 NNW 10 17 30.09 1019 1.25 2.011675 0 0
6:15 am 06:15 Cloudy with Mist and Fog 30 -1.1 27 -2.8 88 88 NNW 13 20 30.13 1020 3 4.82802 0 0
6:38 am 06:38 Cloudy with Mist and Fog 29 -1.7 26 -3.3 89 89 NNW 16 26 30.16 1021 6 9.65604 0 0
6:54 am 06:54 Cloudy with Mist and Fog 29 -1.7 26 -3.3 89 89 NNW 17 28 30.13 1020 6 9.65604 0 0
7:20 am 07:20 Cloudy with Mist and Fog 29 -1.7 26 -3.3 89 89 NNW 13 20 30.18 1022 5 8.0467 0 0
7:54 am 07:54 Cloudy with Mist and Fog 29 -1.7 25 -3.9 85 85 NNW 17 28 30.17 1022 6 9.65604 0 0
8:54 am 08:54 Cloudy 29 -1.7 23 -5 78 78 NNW 20 31 30.22 1023 7 11.26538 0 0
9:54 am 09:54 Cloudy 28 -2.2 22 -5.6 78 78 N 22 35 30.25 1024 8 12.87472 0 0
10:54 am 10:54 Cloudy 25 -3.9 19 -7.2 78 78 NNW 21 33 30.3 1026 7 11.26538 0 0
11:46 am 11:46 Cloudy 24 -4.4 15 -9.4 68 68 NNW 20 31 30.37 1029 10 16.0934 0 0
11:54 am 11:54 Mostly Cloudy 23 -5 14 -10 68 68 NNW 20 31 30.32 1027 10 16.0934 0 0
12:10 pm 12:10 Partly Cloudy 24 -4.4 13 -10.6 62 62 NNW 23 37 30.37 1029 10 16.0934 0 0
12:54 pm 12:54 Sunny 23 -5 11 -11.7 60 60 N 20 31 30.35 1028 10 16.0934 0 0
1:54 pm 13:54 Sunny 24 -4.4 10 -12.2 55 55 N 18 30 30.37 1029 10 16.0934 0 0
2:54 pm 14:54 Sunny 24 -4.4 10 -12.2 55 55 N 17 28 30.4 1030 10 16.0934 0 0
3:54 pm 15:54 Sunny 22 -5.6 8 -13.3 55 55 N 14 22 30.45 1031 10 16.0934 0 0
4:54 pm 16:54 Sunny 19 -7.2 6 -14.4 57 57 N 17 28 30.49 1033 10 16.0934 0 0
5:54 pm 17:54 Clear 15 -9.4 4 -15.6 61 61 N 16 26 30.55 1034 10 16.0934 0 0
6:54 pm 18:54 Clear 13 -10.6 2 -16.7 61 61 N 15 24 30.62 1037 10 16.0934 0 0
7:54 pm 19:54 Clear 11 -11.7 -1 -18.3 58 58 N 16 26 30.66 1038 10 16.0934 0 0
8:54 pm 20:54 Clear 9 -12.8 -2 -18.9 61 61 N 18 30 30.69 1039 10 16.0934 0 0
9:54 pm 21:54 Clear 7 -13.9 -2 -18.9 66 66 N 17 28 30.7 1040 10 16.0934 0 0
10:54 pm 22:54 Clear 6 -14.4 -3 -19.4 66 66 N 13 20 30.74 1041 10 16.0934 0 0
11:54 pm 23:54 Clear 5 -15 -4 -20 66 66 N 12 19 30.76 1042 10 16.0934 0 0

Powered by AerisWeather